Hourly Weather Bolshie Mochily

Today, 4 August, Wednesday

Time Temperature Precipitation Wind Pressure Humidity
00:00 +19°C° 0 mm 2 mps 751 mmHg 78%
01:00 +19°C° 0 mm 2 mps 751 mmHg 80%
02:00 +18°C° 0 mm 2 mps 751 mmHg 81%
03:00 +17°C° 0 mm 2 mps 751 mmHg 83%
04:00 +17°C° 0 mm 2 mps 751 mmHg 83%
05:00 +17°C° 0 mm 2 mps 751 mmHg 82%
06:00 +17°C° 0 mm 2 mps 751 mmHg 82%
07:00 +19°C° 0 mm 2 mps 752 mmHg 72%
08:00 +21°C° 0 mm 3 mps 752 mmHg 62%
09:00 +24°C° 0 mm 3 mps 752 mmHg 50%
10:00 +25°C° 0 mm 3 mps 752 mmHg 45%
11:00 +26°C° 0 mm 3 mps 752 mmHg 41%
12:00 +27°C° 0 mm 3 mps 753 mmHg 36%
13:00 +27°C° 0 mm 3 mps 753 mmHg 37%
14:00 +26°C° 0 mm 3 mps 753 mmHg 38%
15:00 +26°C° 0 mm 3 mps 753 mmHg 39%
16:00 +25°C° 0 mm 3 mps 753 mmHg 43%
17:00 +24°C° 0 mm 3 mps 753 mmHg 47%
18:00 +22°C° 0 mm 3 mps 753 mmHg 51%
19:00 +21°C° 0 mm 2 mps 753 mmHg 54%
20:00 +19°C° 0 mm 2 mps 753 mmHg 58%
21:00 +18°C° 0 mm 2 mps 754 mmHg 61%
22:00 +18°C° 0 mm 1 mps 754 mmHg 63%
23:00 +18°C° 0 mm 1 mps 754 mmHg 64%

Tomorrow, 5 August, Thursday

Time Temperature Precipitation Wind Pressure Humidity
00:00 +16°C° 0 mm 1 mps 754 mmHg 65%
01:00 +16°C° 0 mm 1 mps 754 mmHg 66%
02:00 +16°C° 0 mm 1 mps 754 mmHg 67%
03:00 +15°C° 0 mm 1 mps 755 mmHg 68%
04:00 +16°C° 0 mm 1 mps 755 mmHg 69%
05:00 +16°C° 0 mm 1 mps 755 mmHg 69%
06:00 +16°C° 0 mm 1 mps 755 mmHg 69%
07:00 +19°C° 0 mm 1 mps 755 mmHg 62%
08:00 +22°C° 0 mm 1 mps 755 mmHg 54%
09:00 +22°C° 0 mm 0 mps 755 mmHg 47%
10:00 +23°C° 0 mm 0 mps 755 mmHg 43%
11:00 +24°C° 0 mm 0 mps 755 mmHg 39%
12:00 +25°C° 0 mm 0 mps 755 mmHg 36%
13:00 +27°C° 0 mm 1 mps 755 mmHg 35%
14:00 +28°C° 0 mm 1 mps 754 mmHg 34%
15:00 +28°C° 0 mm 1 mps 754 mmHg 33%
16:00 +27°C° 0 mm 1 mps 754 mmHg 36%
17:00 +27°C° 0 mm 1 mps 754 mmHg 39%
18:00 +27°C° 0 mm 1 mps 754 mmHg 42%
19:00 +25°C° 0 mm 2 mps 753 mmHg 44%
20:00 +24°C° 0 mm 2 mps 753 mmHg 45%
21:00 +23°C° 0 mm 2 mps 753 mmHg 47%
22:00 +21°C° 0 mm 3 mps 753 mmHg 49%
23:00 +20°C° 0 mm 3 mps 753 mmHg 50%

Day after tomorrow, 6 August, Friday

Time Temperature Precipitation Wind Pressure Humidity
00:00 +20°C° 0 mm 3 mps 753 mmHg 52%
01:00 +19°C° 0 mm 3 mps 753 mmHg 55%
02:00 +19°C° 0 mm 3 mps 753 mmHg 57%
03:00 +18°C° 0 mm 3 mps 753 mmHg 59%
04:00 +19°C° 0 mm 3 mps 753 mmHg 58%
05:00 +19°C° 0 mm 4 mps 753 mmHg 57%
06:00 +20°C° 0 mm 4 mps 753 mmHg 57%
07:00 +21°C° 0 mm 5 mps 753 mmHg 52%
08:00 +23°C° 0 mm 5 mps 753 mmHg 48%
09:00 +26°C° 0 mm 6 mps 752 mmHg 43%
10:00 +26°C° 0 mm 5 mps 752 mmHg 45%
11:00 +26°C° 0 mm 4 mps 752 mmHg 46%
12:00 +25°C° 0 mm 3 mps 752 mmHg 48%
13:00 +27°C° 0 mm 3 mps 752 mmHg 44%
14:00 +28°C° 0 mm 3 mps 752 mmHg 41%
15:00 +30°C° 0 mm 3 mps 751 mmHg 37%
16:00 +30°C° 0 mm 3 mps 751 mmHg 38%
17:00 +30°C° 0 mm 4 mps 751 mmHg 38%
18:00 +30°C° 0 mm 4 mps 750 mmHg 38%
19:00 +28°C° 0 mm 4 mps 750 mmHg 42%
20:00 +26°C° 0 mm 4 mps 750 mmHg 46%
21:00 +25°C° 0 mm 4 mps 750 mmHg 50%
22:00 +23°C° 0 mm 4 mps 750 mmHg 50%
23:00 +23°C° 0 mm 4 mps 750 mmHg 51%

7 August, Saturday

Time Temperature Precipitation Wind Pressure Humidity
00:00 +22°C° 0 mm 4 mps 751 mmHg 51%
01:00 +23°C° 0 mm 4 mps 751 mmHg 49%
02:00 +23°C° 0 mm 5 mps 750 mmHg 48%
03:00 +23°C° 0 mm 5 mps 750 mmHg 46%
04:00 +23°C° 0 mm 5 mps 751 mmHg 46%
05:00 +23°C° 0 mm 5 mps 751 mmHg 46%
06:00 +23°C° 0 mm 5 mps 751 mmHg 46%
07:00 +25°C° 0 mm 5 mps 751 mmHg 43%
08:00 +26°C° 0 mm 5 mps 751 mmHg 41%
09:00 +27°C° 0 mm 5 mps 751 mmHg 39%
10:00 +28°C° 0 mm 5 mps 751 mmHg 37%
11:00 +29°C° 0 mm 4 mps 752 mmHg 36%
12:00 +29°C° 0 mm 3 mps 752 mmHg 35%
13:00 +31°C° 0 mm 3 mps 752 mmHg 32%
14:00 +34°C° 0 mm 3 mps 751 mmHg 29%
15:00 +35°C° 0 mm 3 mps 751 mmHg 26%
16:00 +35°C° 0 mm 3 mps 751 mmHg 28%
17:00 +34°C° 0 mm 4 mps 751 mmHg 31%
18:00 +33°C° 0 mm 4 mps 751 mmHg 33%
19:00 +30°C° 0 mm 4 mps 751 mmHg 37%
20:00 +28°C° 0 mm 4 mps 751 mmHg 41%
21:00 +26°C° 0 mm 4 mps 752 mmHg 45%
22:00 +25°C° 0 mm 4 mps 752 mmHg 46%
23:00 +23°C° 0 mm 4 mps 752 mmHg 47%

8 August, Sunday

Time Temperature Precipitation Wind Pressure Humidity
00:00 +24°C° 0 mm 3 mps 752 mmHg 47%
01:00 +22°C° 0 mm 3 mps 752 mmHg 48%
02:00 +21°C° 0 mm 3 mps 752 mmHg 49%
03:00 +20°C° 0 mm 3 mps 752 mmHg 50%
04:00 +20°C° 0 mm 3 mps 752 mmHg 50%
05:00 +21°C° 0 mm 3 mps 752 mmHg 49%
06:00 +21°C° 0 mm 3 mps 752 mmHg 49%
07:00 +24°C° 0 mm 3 mps 752 mmHg 44%
08:00 +26°C° 0 mm 3 mps 752 mmHg 39%
09:00 +28°C° 0 mm 3 mps 752 mmHg 34%
10:00 +30°C° 0 mm 3 mps 752 mmHg 31%
11:00 +33°C° 0 mm 3 mps 752 mmHg 28%
12:00 +34°C° 0 mm 3 mps 752 mmHg 25%
13:00 +34°C° 0 mm 3 mps 752 mmHg 25%
14:00 +35°C° 0 mm 3 mps 752 mmHg 26%
15:00 +35°C° 0 mm 3 mps 752 mmHg 26%
16:00 +33°C° 0 mm 3 mps 752 mmHg 31%
17:00 +30°C° 0 mm 3 mps 752 mmHg 36%
18:00 +29°C° 0 mm 3 mps 752 mmHg 41%
19:00 +28°C° 0 mm 2 mps 752 mmHg 41%
20:00 +27°C° 0 mm 2 mps 752 mmHg 41%
21:00 +27°C° 0 mm 1 mps 752 mmHg 42%
22:00 +27°C° 0 mm 1 mps 753 mmHg 42%
23:00 +26°C° 0 mm 1 mps 753 mmHg 41%

9 August, Monday

Time Temperature Precipitation Wind Pressure Humidity
00:00 +26°C° 0 mm 1 mps 753 mmHg 41%
01:00 +26°C° 0 mm 2 mps 753 mmHg 42%
02:00 +25°C° 0 mm 2 mps 753 mmHg 43%
03:00 +25°C° 0 mm 2 mps 753 mmHg 45%
04:00 +25°C° 0 mm 3 mps 753 mmHg 46%
05:00 +25°C° 0 mm 3 mps 753 mmHg 48%
06:00 +24°C° 0 mm 3 mps 753 mmHg 50%
07:00 +26°C° 0 mm 4 mps 753 mmHg 47%
08:00 +27°C° 0 mm 4 mps 753 mmHg 45%
09:00 +28°C° 0 mm 5 mps 753 mmHg 42%
10:00 +30°C° 0 mm 5 mps 753 mmHg 39%
11:00 +32°C° 0 mm 6 mps 753 mmHg 35%
12:00 +33°C° 0 mm 6 mps 753 mmHg 32%
13:00 +34°C° 0 mm 5 mps 753 mmHg 32%
14:00 +34°C° 0 mm 5 mps 753 mmHg 32%
15:00 +34°C° 0 mm 5 mps 753 mmHg 32%
16:00 +33°C° 0 mm 5 mps 753 mmHg 35%
17:00 +32°C° 0 mm 5 mps 753 mmHg 39%
18:00 +30°C° 0 mm 5 mps 753 mmHg 42%
19:00 +28°C° 0 mm 5 mps 753 mmHg 48%
20:00 +26°C° 0 mm 5 mps 753 mmHg 54%
21:00 +23°C° 0 mm 4 mps 754 mmHg 60%
22:00 +22°C° 0 mm 4 mps 754 mmHg 62%
23:00 +21°C° 0 mm 3 mps 754 mmHg 64%
Show more

We Need Your Consent

Meteoprog and our Service Providers may store and access personal data such as cookies, device identifiers or other similar technologies on your device and process such data to personalise content and ads, as well as provide social media features and to analyse the traffic.

  • Store and/or access information on your device

    Cookies, device identifiers or other information can be stored or accessed on your device for the purposes indicated above.

  • Personalised ads and content, ad and content measurement, audience insights, and products development

    Ads and content can be personalised based on a profile. More data can be added to better personalise ads and content. Ad and content performance can be measured. Insights about the audience who saw the ads and content can be derived. Such data can be used to develop or improve user’s experience, systems and software.

By clicking ‘I Agree’ you will allow the use of indicated cookies, device identifiers, web beacons or other similar technologies. Your settings can be changed in the browser on your device.

For certain purposes, legitimate interests may be relied on, rather than consent. You can read more about this in our Privacy and Cookie Policy.